Flag for Canada Weather past 2 weeks in Paradise, Newfoundland and Labrador, Canada

Now
54 °F

Overcast.


Feels Like: 51 °F
Forecast: N/A
Wind: 8 mph from South

Location: St. John's

Current Time: May 22, 2015 at 8:33:21 PM

Latest Report: May 22, 2015 at 7:30 PM


Visibility: 15 mi

Pressure: 30.16 "Hg

Humidity: 47%

Dew point: 34 °F

Location of ParadiseLocation

Historic Weather in Paradise — Graph

°F

Paradise temperature yesterday

Maximum temperature yesterday: 57 °F (at 12:30 PM)
Minimum temperature yesterday: 43 °F (at 11:30 PM)
Average temperature yesterday: 50 °F

Past Weeks' High & Low Weather Summary

 TemperatureHumidityPressure
High64 °F (May 15, 2:30 PM)100% (May 8, 12:30 AM)30.51 "Hg (May 8, 12:30 AM)
Low28 °F (May 8, 3:30 AM)32% (May 15, 1:30 PM)29.33 "Hg (May 13, 6:30 AM)
Average42 °F83%30.01 "Hg
* Reported May 7 7:30 PM — May 22 7:30 PM, Paradise, Weather by CustomWeather, © 2015

Note: Actual official high and low records may vary slightly from our data, if they occured in-between our weather recording intervals... More about our weather records

Advertising

Paradise weather history for previous 24 hours

 ConditionsComfort  
Time TempWeatherWind HumidityBarometerVisibility
7:30 PM
Fri, May 22
54 °FOvercast.8 mph47%30.16 "Hg15 mi
6:30 PM54 °FMostly cloudy.6 mph47%30.17 "Hg15 mi
5:30 PM57 °FMostly cloudy.9 mph41%30.17 "Hg14 mi
4:30 PM63 °FPartly sunny.13 mph32%30.17 "Hg15 mi
3:30 PM59 °FMostly cloudy.16 mph34%30.16 "Hg15 mi
2:30 PM59 °FMostly cloudy.15 mph36%30.16 "Hg15 mi
1:30 PM61 °FMostly cloudy.15 mph36%30.16 "Hg15 mi
12:30 PM64 °FOvercast.14 mph37%30.16 "Hg15 mi
11:30 AM61 °FPartly sunny.12 mph42%30.16 "Hg15 mi
10:30 AM61 °FPartly sunny.15 mph42%30.14 "Hg15 mi
9:30 AM59 °FPartly sunny.12 mph42%30.13 "Hg15 mi
8:30 AM55 °FScattered clouds.10 mph44%30.12 "Hg15 mi
7:30 AM48 °FPassing clouds.9 mph54%30.11 "Hg15 mi
6:30 AM43 °FSunny.9 mph66%30.08 "Hg15 mi
5:30 AM39 °FPassing clouds.9 mph75%30.06 "Hg15 mi
4:30 AM39 °FClear.10 mph75%30.03 "Hg15 mi
3:30 AM39 °FClear.14 mph81%30.01 "Hg15 mi
2:30 AM41 °FClear.14 mph76%29.98 "Hg15 mi
1:30 AM41 °FClear.12 mph76%29.95 "Hg15 mi
12:30 AM41 °FClear.14 mph81%29.92 "Hg15 mi
11:30 PM
Thu, May 21
43 °FClear.16 mph76%29.88 "Hg15 mi
10:30 PM45 °FOvercast.23 mph71%29.83 "Hg15 mi
9:30 PM45 °FPassing clouds.21 mph71%29.78 "Hg15 mi
8:30 PM45 °FScattered clouds.21 mph71%29.74 "Hg15 mi
Weather by CustomWeather, © 2015

See weather overviewHow to use our weather pages